Time,TemperatureF,DewpointF,PressureIn,WindDirection,WindDirectionDegrees,WindSpeedMPH,WindSpeedGustMPH,Humidity,HourlyPrecipIn,Conditions,Clouds,dailyrainin,SoftwareType,DateUTC
2013-04-21 00:01:00,45.0,25.5,30.16,WSW,258,3.0,6.0,46,0.00,,,0.00,WeatherCatV1.15B25,2013-04-21 04:01:00,
2013-04-21 00:06:00,44.8,24.8,30.16,South,179,0.0,9.0,45,0.00,,,0.00,WeatherCatV1.15B25,2013-04-21 04:06:00,
2013-04-21 00:11:00,44.5,24.5,30.17,WSW,247,0.0,5.0,45,0.00,,,0.00,WeatherCatV1.15B25,2013-04-21 04:11:00,
2013-04-21 00:16:00,44.2,24.2,30.17,West,259,0.0,5.0,45,0.00,,,0.00,WeatherCatV1.15B25,2013-04-21 04:16:00,
2013-04-21 00:21:00,44.0,23.5,30.17,SW,236,1.0,5.0,44,0.00,,,0.00,WeatherCatV1.15B25,2013-04-21 04:21:00,
2013-04-21 00:26:00,43.8,23.3,30.18,West,275,4.0,5.0,44,0.00,,,0.00,WeatherCatV1.15B25,2013-04-21 04:26:00,
2013-04-21 00:31:00,43.6,22.6,30.18,SSW,204,2.0,8.0,43,0.00,,,0.00,WeatherCatV1.15B25,2013-04-21 04:31:00,
2013-04-21 00:36:00,43.4,23.0,30.18,West,262,3.0,3.0,44,0.00,,,0.00,WeatherCatV1.15B25,2013-04-21 04:36:00,
2013-04-21 00:41:00,43.2,23.3,30.18,WNW,284,1.0,3.0,45,0.00,,,0.00,WeatherCatV1.15B25,2013-04-21 04:41:00,
2013-04-21 00:46:00,43.0,22.6,30.18,West,273,0.0,3.0,44,0.00,,,0.00,WeatherCatV1.15B25,2013-04-21 04:46:00,
2013-04-21 00:51:00,42.9,22.5,30.19,WSW,242,1.0,8.0,44,0.00,,,0.00,WeatherCatV1.15B25,2013-04-21 04:51:00,
2013-04-21 00:56:00,42.7,22.9,30.19,West,268,0.0,4.0,45,0.00,,,0.00,WeatherCatV1.15B25,2013-04-21 04:56:00,
2013-04-21 01:01:00,42.6,23.3,30.19,WSW,248,0.0,1.0,46,0.00,,,0.00,WeatherCatV1.15B25,2013-04-21 05:01:00,
2013-04-21 01:06:00,42.5,23.2,30.20,WSW,239,0.0,5.0,46,0.00,,,0.00,WeatherCatV1.15B25,2013-04-21 05:06:00,
2013-04-21 01:11:00,42.3,23.0,30.20,West,277,0.0,4.0,46,0.00,,,0.00,WeatherCatV1.15B25,2013-04-21 05:11:00,
2013-04-21 01:16:00,42.2,23.9,30.20,West,280,0.0,2.0,48,0.00,,,0.00,WeatherCatV1.15B25,2013-04-21 05:16:00,
2013-04-21 01:21:00,42.0,24.2,30.20,West,273,3.0,3.0,49,0.00,,,0.00,WeatherCatV1.15B25,2013-04-21 05:21:00,
2013-04-21 01:26:00,41.7,22.5,30.21,WNW,289,0.0,3.0,46,0.00,,,0.00,WeatherCatV1.15B25,2013-04-21 05:26:00,
2013-04-21 01:31:00,41.5,22.8,30.21,WNW,286,3.0,5.0,47,0.00,,,0.00,WeatherCatV1.15B25,2013-04-21 05:31:00,
2013-04-21 01:36:00,41.2,22.0,30.21,WSW,254,3.0,5.0,46,0.00,,,0.00,WeatherCatV1.15B25,2013-04-21 05:36:00,
2013-04-21 01:41:00,41.0,22.3,30.21,NW,307,2.0,6.0,47,0.00,,,0.00,WeatherCatV1.15B25,2013-04-21 05:41:00,
2013-04-21 01:46:00,40.8,22.1,30.21,WNW,287,2.0,8.0,47,0.00,,,0.00,WeatherCatV1.15B25,2013-04-21 05:46:00,
2013-04-21 01:51:00,40.6,22.0,30.22,West,269,0.0,0.0,47,0.00,,,0.00,WeatherCatV1.15B25,2013-04-21 05:51:00,
2013-04-21 01:56:00,40.4,22.3,30.22,SSE,152,4.0,4.0,48,0.00,,,0.00,WeatherCatV1.15B25,2013-04-21 05:56:00,
2013-04-21 02:01:00,40.2,22.6,30.22,West,259,0.0,2.0,49,0.00,,,0.00,WeatherCatV1.15B25,2013-04-21 06:01:00,
2013-04-21 02:06:00,40.1,22.5,30.23,West,272,1.0,6.0,49,0.00,,,0.00,WeatherCatV1.15B25,2013-04-21 06:06:00,
2013-04-21 02:11:00,39.8,22.2,30.22,West,273,0.0,4.0,49,0.00,,,0.00,WeatherCatV1.15B25,2013-04-21 06:11:00,
2013-04-21 02:16:00,39.7,22.6,30.23,West,277,1.0,5.0,50,0.00,,,0.00,WeatherCatV1.15B25,2013-04-21 06:16:00,
2013-04-21 02:21:00,39.5,22.4,30.24,West,276,3.0,6.0,50,0.00,,,0.00,WeatherCatV1.15B25,2013-04-21 06:21:00,
2013-04-21 02:26:00,39.3,22.7,30.23,West,267,6.0,7.0,51,0.00,,,0.00,WeatherCatV1.15B25,2013-04-21 06:26:00,
2013-04-21 02:27:00,39.3,22.2,30.23,West,264,2.0,7.0,50,0.00,,,0.00,WeatherCatV1.15B25,2013-04-21 06:27:00,
2013-04-21 02:32:00,39.1,22.5,30.23,West,281,1.0,3.0,51,0.00,,,0.00,WeatherCatV1.15B25,2013-04-21 06:32:00,
2013-04-21 02:37:00,38.9,22.3,30.24,SW,229,1.0,3.0,51,0.00,,,0.00,WeatherCatV1.15B25,2013-04-21 06:37:00,
2013-04-21 02:42:00,38.8,22.7,30.24,West,262,1.0,2.0,52,0.00,,,0.00,WeatherCatV1.15B25,2013-04-21 06:42:00,
2013-04-21 02:47:00,38.7,22.1,30.24,SW,225,3.0,3.0,51,0.00,,,0.00,WeatherCatV1.15B25,2013-04-21 06:47:00,
2013-04-21 02:52:00,38.6,22.5,30.25,WNW,285,2.0,4.0,52,0.00,,,0.00,WeatherCatV1.15B25,2013-04-21 06:52:00,
2013-04-21 02:57:00,38.4,22.8,30.25,WNW,296,0.0,2.0,53,0.00,,,0.00,WeatherCatV1.15B25,2013-04-21 06:57:00,
2013-04-21 03:02:00,38.3,23.1,30.25,West,267,1.0,2.0,54,0.00,,,0.00,WeatherCatV1.15B25,2013-04-21 07:02:00,
2013-04-21 03:07:00,38.2,23.0,30.26,WSW,245,0.0,1.0,54,0.00,,,0.00,WeatherCatV1.15B25,2013-04-21 07:07:00,
2013-04-21 03:12:00,38.1,22.5,30.26,West,263,2.0,2.0,53,0.00,,,0.00,WeatherCatV1.15B25,2013-04-21 07:12:00,
2013-04-21 03:17:00,38.0,22.0,30.27,West,266,3.0,5.0,52,0.00,,,0.00,WeatherCatV1.15B25,2013-04-21 07:17:00,
2013-04-21 03:22:00,37.9,21.9,30.26,WSW,253,1.0,5.0,52,0.00,,,0.00,WeatherCatV1.15B25,2013-04-21 07:22:00,
2013-04-21 03:27:00,37.8,21.3,30.27,West,267,0.0,3.0,51,0.00,,,0.00,WeatherCatV1.15B25,2013-04-21 07:27:00,
2013-04-21 03:32:00,37.7,21.7,30.27,WNW,287,0.0,1.0,52,0.00,,,0.00,WeatherCatV1.15B25,2013-04-21 07:32:00,
2013-04-21 03:37:00,37.6,21.6,30.27,WSW,256,2.0,4.0,52,0.00,,,0.00,WeatherCatV1.15B25,2013-04-21 07:37:00,
2013-04-21 03:42:00,37.4,21.4,30.27,WSW,255,0.0,2.0,52,0.00,,,0.00,WeatherCatV1.15B25,2013-04-21 07:42:00,
2013-04-21 03:47:00,37.3,21.3,30.28,West,268,2.0,2.0,52,0.00,,,0.00,WeatherCatV1.15B25,2013-04-21 07:47:00,
2013-04-21 03:52:00,37.1,21.1,30.27,WNW,285,0.0,4.0,52,0.00,,,0.00,WeatherCatV1.15B25,2013-04-21 07:52:00,
2013-04-21 03:57:00,37.0,20.6,30.28,WSW,253,0.0,3.0,51,0.00,,,0.00,WeatherCatV1.15B25,2013-04-21 07:57:00,
2013-04-21 04:02:00,36.9,20.9,30.28,SW,227,0.0,2.0,52,0.00,,,0.00,WeatherCatV1.15B25,2013-04-21 08:02:00,
2013-04-21 04:07:00,36.8,20.8,30.28,West,267,3.0,5.0,52,0.00,,,0.00,WeatherCatV1.15B25,2013-04-21 08:07:00,
2013-04-21 04:12:00,36.8,20.8,30.28,SW,221,0.0,1.0,52,0.00,,,0.00,WeatherCatV1.15B25,2013-04-21 08:12:00,
2013-04-21 04:17:00,36.7,20.8,30.28,WNW,286,2.0,4.0,52,0.00,,,0.00,WeatherCatV1.15B25,2013-04-21 08:17:00,
2013-04-21 04:22:00,36.6,20.7,30.28,WSW,250,2.0,3.0,52,0.00,,,0.00,WeatherCatV1.15B25,2013-04-21 08:22:00,
2013-04-21 04:27:00,36.4,20.0,30.28,SW,231,1.0,5.0,51,0.00,,,0.00,WeatherCatV1.15B25,2013-04-21 08:27:00,
2013-04-21 04:32:00,36.3,20.8,30.29,WSW,247,0.0,1.0,53,0.00,,,0.00,WeatherCatV1.15B25,2013-04-21 08:32:00,
2013-04-21 04:37:00,36.1,20.6,30.29,WSW,240,0.0,1.0,53,0.00,,,0.00,WeatherCatV1.15B25,2013-04-21 08:37:00,
2013-04-21 04:42:00,36.0,20.5,30.29,West,269,2.0,3.0,53,0.00,,,0.00,WeatherCatV1.15B25,2013-04-21 08:42:00,
2013-04-21 04:47:00,36.0,20.5,30.29,WSW,258,0.0,1.0,53,0.00,,,0.00,WeatherCatV1.15B25,2013-04-21 08:47:00,
2013-04-21 04:52:00,35.9,20.9,30.30,WSW,255,0.0,0.0,54,0.00,,,0.00,WeatherCatV1.15B25,2013-04-21 08:52:00,
2013-04-21 04:57:00,35.7,20.7,30.30,WSW,255,0.0,0.0,54,0.00,,,0.00,WeatherCatV1.15B25,2013-04-21 08:57:00,
2013-04-21 05:02:00,35.6,20.6,30.31,WSW,238,0.0,2.0,54,0.00,,,0.00,WeatherCatV1.15B25,2013-04-21 09:02:00,
2013-04-21 05:07:00,35.5,21.4,30.31,WSW,245,0.0,0.0,56,0.00,,,0.00,WeatherCatV1.15B25,2013-04-21 09:07:00,
2013-04-21 05:12:00,35.3,20.8,30.31,West,272,0.0,2.0,55,0.00,,,0.00,WeatherCatV1.15B25,2013-04-21 09:12:00,
2013-04-21 05:17:00,35.3,21.6,30.32,West,272,0.0,0.0,57,0.00,,,0.00,WeatherCatV1.15B25,2013-04-21 09:17:00,
2013-04-21 05:22:00,35.1,21.0,30.31,SW,225,2.0,4.0,56,0.00,,,0.00,WeatherCatV1.15B25,2013-04-21 09:22:00,
2013-04-21 05:27:00,35.1,20.6,30.32,NW,309,0.0,2.0,55,0.00,,,0.00,WeatherCatV1.15B25,2013-04-21 09:27:00,
2013-04-21 05:32:00,35.0,20.5,30.33,WNW,286,0.0,0.0,55,0.00,,,0.00,WeatherCatV1.15B25,2013-04-21 09:32:00,
2013-04-21 05:37:00,34.8,20.7,30.33,SW,236,0.0,1.0,56,0.00,,,0.00,WeatherCatV1.15B25,2013-04-21 09:37:00,
2013-04-21 05:42:00,34.8,20.7,30.33,SW,236,0.0,0.0,56,0.00,,,0.00,WeatherCatV1.15B25,2013-04-21 09:42:00,
2013-04-21 05:47:00,34.7,21.9,30.34,WSW,254,0.0,2.0,59,0.00,,,0.00,WeatherCatV1.15B25,2013-04-21 09:47:00,
2013-04-21 05:52:00,34.7,21.0,30.34,SW,234,0.0,0.0,57,0.00,,,0.00,WeatherCatV1.15B25,2013-04-21 09:52:00,
2013-04-21 05:57:00,34.7,20.6,30.34,SW,234,0.0,1.0,56,0.00,,,0.00,WeatherCatV1.15B25,2013-04-21 09:57:00,
2013-04-21 06:02:00,34.6,21.4,30.34,SW,227,0.0,0.0,58,0.00,,,0.00,WeatherCatV1.15B25,2013-04-21 10:02:00,
2013-04-21 06:07:00,34.4,21.2,30.35,SW,227,0.0,0.0,58,0.00,,,0.00,WeatherCatV1.15B25,2013-04-21 10:07:00,
2013-04-21 06:12:00,34.3,21.9,30.35,SW,227,0.0,0.0,60,0.00,,,0.00,WeatherCatV1.15B25,2013-04-21 10:12:00,
2013-04-21 06:17:00,34.3,21.5,30.36,SW,227,0.0,0.0,59,0.00,,,0.00,WeatherCatV1.15B25,2013-04-21 10:17:00,
2013-04-21 06:22:00,34.3,22.3,30.36,SW,227,0.0,0.0,61,0.00,,,0.00,WeatherCatV1.15B25,2013-04-21 10:22:00,
2013-04-21 06:27:00,34.3,21.1,30.36,West,273,0.0,4.0,58,0.00,,,0.00,WeatherCatV1.15B25,2013-04-21 10:27:00,
2013-04-21 06:32:00,34.4,22.4,30.37,West,273,0.0,0.0,61,0.00,,,0.00,WeatherCatV1.15B25,2013-04-21 10:32:00,
2013-04-21 06:37:00,34.4,21.2,30.37,West,273,0.0,2.0,58,0.00,,,0.00,WeatherCatV1.15B25,2013-04-21 10:37:00,
2013-04-21 06:42:00,34.6,21.8,30.37,West,273,0.0,0.0,59,0.00,,,0.00,WeatherCatV1.15B25,2013-04-21 10:42:00,
2013-04-21 06:47:00,34.9,22.0,30.38,West,273,0.0,1.0,59,0.00,,,0.00,WeatherCatV1.15B25,2013-04-21 10:47:00,
2013-04-21 06:52:00,35.2,21.9,30.38,West,273,0.0,0.0,58,0.00,,,0.00,WeatherCatV1.15B25,2013-04-21 10:52:00,
2013-04-21 06:57:00,35.5,21.8,30.39,West,281,0.0,2.0,57,0.00,,,0.00,WeatherCatV1.15B25,2013-04-21 10:57:00,
2013-04-21 07:02:00,35.8,22.1,30.39,West,279,1.0,2.0,57,0.00,,,0.00,WeatherCatV1.15B25,2013-04-21 11:02:00,
2013-04-21 07:07:00,36.1,21.9,30.39,West,281,0.0,3.0,56,0.00,,,0.00,WeatherCatV1.15B25,2013-04-21 11:07:00,
2013-04-21 07:12:00,36.3,22.5,30.40,West,281,0.0,0.0,57,0.00,,,0.00,WeatherCatV1.15B25,2013-04-21 11:12:00,
2013-04-21 07:17:00,36.6,22.0,30.40,West,281,0.0,2.0,55,0.00,,,0.00,WeatherCatV1.15B25,2013-04-21 11:17:00,
2013-04-21 07:22:00,36.7,22.1,30.40,WSW,250,2.0,2.0,55,0.00,,,0.00,WeatherCatV1.15B25,2013-04-21 11:22:00,
2013-04-21 07:27:00,36.9,21.8,30.40,West,269,0.0,4.0,54,0.00,,,0.00,WeatherCatV1.15B25,2013-04-21 11:27:00,
2013-04-21 07:32:00,37.1,22.4,30.41,West,270,1.0,1.0,55,0.00,,,0.00,WeatherCatV1.15B25,2013-04-21 11:32:00,
2013-04-21 07:37:00,37.4,22.7,30.41,West,273,0.0,2.0,55,0.00,,,0.00,WeatherCatV1.15B25,2013-04-21 11:37:00,
2013-04-21 07:42:00,37.7,22.1,30.41,West,273,1.0,2.0,53,0.00,,,0.00,WeatherCatV1.15B25,2013-04-21 11:42:00,
2013-04-21 07:47:00,37.9,22.3,30.41,SW,232,0.0,4.0,53,0.00,,,0.00,WeatherCatV1.15B25,2013-04-21 11:47:00,
2013-04-21 07:52:00,38.0,22.0,30.41,NW,323,0.0,3.0,52,0.00,,,0.00,WeatherCatV1.15B25,2013-04-21 11:52:00,
2013-04-21 07:57:00,38.2,22.6,30.42,WNW,290,0.0,2.0,53,0.00,,,0.00,WeatherCatV1.15B25,2013-04-21 11:57:00,
2013-04-21 08:02:00,38.6,22.1,30.42,West,265,4.0,5.0,51,0.00,,,0.00,WeatherCatV1.15B25,2013-04-21 12:02:00,
2013-04-21 08:07:00,38.8,21.8,30.42,NW,304,1.0,4.0,50,0.00,,,0.00,WeatherCatV1.15B25,2013-04-21 12:07:00,
2013-04-21 08:12:00,39.0,22.0,30.42,NW,317,1.0,3.0,50,0.00,,,0.00,WeatherCatV1.15B25,2013-04-21 12:12:00,
2013-04-21 08:17:00,39.3,22.2,30.42,North,350,1.0,3.0,50,0.00,,,0.00,WeatherCatV1.15B25,2013-04-21 12:17:00,
2013-04-21 08:22:00,39.5,21.9,30.42,West,279,3.0,4.0,49,0.00,,,0.00,WeatherCatV1.15B25,2013-04-21 12:22:00,
2013-04-21 08:27:00,39.7,21.1,30.43,North,7,2.0,5.0,47,0.00,,,0.00,WeatherCatV1.15B25,2013-04-21 12:27:00,
2013-04-21 08:32:00,40.0,21.9,30.43,WNW,294,3.0,4.0,48,0.00,,,0.00,WeatherCatV1.15B25,2013-04-21 12:32:00,
2013-04-21 08:37:00,40.3,20.7,30.43,West,263,0.0,4.0,45,0.00,,,0.00,WeatherCatV1.15B25,2013-04-21 12:37:00,
2013-04-21 08:42:00,40.5,21.9,30.43,West,272,1.0,4.0,47,0.00,,,0.00,WeatherCatV1.15B25,2013-04-21 12:42:00,
2013-04-21 08:47:00,40.7,21.0,30.43,NNW,327,0.0,4.0,45,0.00,,,0.00,WeatherCatV1.15B25,2013-04-21 12:47:00,
2013-04-21 08:52:00,41.0,21.3,30.43,NNW,335,2.0,6.0,45,0.00,,,0.00,WeatherCatV1.15B25,2013-04-21 12:52:00,
2013-04-21 08:57:00,40.9,20.7,30.44,NW,317,1.0,5.0,44,0.00,,,0.00,WeatherCatV1.15B25,2013-04-21 12:57:00,
2013-04-21 09:02:00,40.7,20.5,30.44,West,267,1.0,5.0,44,0.00,,,0.00,WeatherCatV1.15B25,2013-04-21 13:02:00,
2013-04-21 09:07:00,40.8,20.6,30.44,NW,319,2.0,5.0,44,0.00,,,0.00,WeatherCatV1.15B25,2013-04-21 13:07:00,
2013-04-21 09:12:00,41.1,21.4,30.44,WNW,298,2.0,6.0,45,0.00,,,0.00,WeatherCatV1.15B25,2013-04-21 13:12:00,
2013-04-21 09:17:00,41.5,21.8,30.44,NW,310,1.0,3.0,45,0.00,,,0.00,WeatherCatV1.15B25,2013-04-21 13:17:00,
2013-04-21 09:22:00,42.1,21.2,30.44,NNW,348,1.0,5.0,43,0.00,,,0.00,WeatherCatV1.15B25,2013-04-21 13:22:00,
2013-04-21 09:27:00,42.7,21.8,30.44,SSE,168,1.0,4.0,43,0.00,,,0.00,WeatherCatV1.15B25,2013-04-21 13:27:00,
2013-04-21 09:32:00,42.1,20.7,30.44,NW,317,1.0,7.0,42,0.00,,,0.00,WeatherCatV1.15B25,2013-04-21 13:32:00,
2013-04-21 09:37:00,41.9,21.1,30.44,WNW,294,0.0,9.0,43,0.00,,,0.00,WeatherCatV1.15B25,2013-04-21 13:37:00,
2013-04-21 09:42:00,42.1,21.2,30.45,SSW,194,2.0,5.0,43,0.00,,,0.00,WeatherCatV1.15B25,2013-04-21 13:42:00,
2013-04-21 09:47:00,42.4,21.0,30.45,West,281,1.0,7.0,42,0.00,,,0.00,WeatherCatV1.15B25,2013-04-21 13:47:00,
2013-04-21 09:52:00,42.6,20.6,30.45,West,275,0.0,6.0,41,0.00,,,0.00,WeatherCatV1.15B25,2013-04-21 13:52:00,
2013-04-21 09:57:00,43.0,22.1,30.45,North,7,0.0,4.0,43,0.00,,,0.00,WeatherCatV1.15B25,2013-04-21 13:57:00,
2013-04-21 10:02:00,43.1,20.4,30.45,West,262,3.0,8.0,40,0.00,,,0.00,WeatherCatV1.15B25,2013-04-21 14:02:00,
2013-04-21 10:07:00,43.1,22.1,30.46,WNW,296,3.0,3.0,43,0.00,,,0.00,WeatherCatV1.15B25,2013-04-21 14:07:00,
2013-04-21 10:12:00,43.1,21.6,30.45,ESE,121,0.0,3.0,42,0.00,,,0.00,WeatherCatV1.15B25,2013-04-21 14:12:00,
2013-04-21 10:17:00,43.8,22.8,30.46,NNW,331,2.0,5.0,43,0.00,,,0.00,WeatherCatV1.15B25,2013-04-21 14:17:00,
2013-04-21 10:22:00,44.2,22.0,30.46,NW,308,0.0,4.0,41,0.00,,,0.00,WeatherCatV1.15B25,2013-04-21 14:22:00,
2013-04-21 10:27:00,44.7,22.5,30.46,NW,321,1.0,3.0,41,0.00,,,0.00,WeatherCatV1.15B25,2013-04-21 14:27:00,
2013-04-21 10:32:00,45.0,22.7,30.46,NW,321,2.0,2.0,41,0.00,,,0.00,WeatherCatV1.15B25,2013-04-21 14:32:00,
2013-04-21 10:37:00,45.1,22.8,30.46,SW,235,1.0,4.0,41,0.00,,,0.00,WeatherCatV1.15B25,2013-04-21 14:37:00,
2013-04-21 10:42:00,45.5,22.0,30.47,SE,129,0.0,2.0,39,0.00,,,0.00,WeatherCatV1.15B25,2013-04-21 14:42:00,
2013-04-21 10:47:00,46.1,22.5,30.47,West,279,0.0,4.0,39,0.00,,,0.00,WeatherCatV1.15B25,2013-04-21 14:47:00,
2013-04-21 10:52:00,46.1,22.5,30.47,NE,37,3.0,5.0,39,0.00,,,0.00,WeatherCatV1.15B25,2013-04-21 14:52:00,
2013-04-21 10:57:00,46.4,22.2,30.47,WNW,294,4.0,7.0,38,0.00,,,0.00,WeatherCatV1.15B25,2013-04-21 14:57:00,
2013-04-21 11:02:00,46.3,21.5,30.47,South,180,0.0,3.0,37,0.00,,,0.00,WeatherCatV1.15B25,2013-04-21 15:02:00,
2013-04-21 11:07:00,46.0,21.8,30.46,WSW,249,3.0,7.0,38,0.00,,,0.00,WeatherCatV1.15B25,2013-04-21 15:07:00,
2013-04-21 11:12:00,46.0,21.8,30.47,NNE,17,1.0,6.0,38,0.00,,,0.00,WeatherCatV1.15B25,2013-04-21 15:12:00,
2013-04-21 11:17:00,46.4,22.2,30.47,NNE,16,3.0,7.0,38,0.00,,,0.00,WeatherCatV1.15B25,2013-04-21 15:17:00,
2013-04-21 11:22:00,46.3,22.7,30.47,West,279,5.0,6.0,39,0.00,,,0.00,WeatherCatV1.15B25,2013-04-21 15:22:00,
2013-04-21 11:27:00,46.1,23.1,30.47,NW,325,1.0,3.0,40,0.00,,,0.00,WeatherCatV1.15B25,2013-04-21 15:27:00,
2013-04-21 11:32:00,46.9,23.3,30.47,NNW,346,1.0,4.0,39,0.00,,,0.00,WeatherCatV1.15B25,2013-04-21 15:32:00,
2013-04-21 11:37:00,47.3,21.7,30.47,NW,319,0.0,2.0,36,0.00,,,0.00,WeatherCatV1.15B25,2013-04-21 15:37:00,
2013-04-21 11:42:00,47.6,23.9,30.47,NE,36,5.0,5.0,39,0.00,,,0.00,WeatherCatV1.15B25,2013-04-21 15:42:00,
2013-04-21 11:47:00,47.7,22.1,30.47,ENE,67,1.0,4.0,36,0.00,,,0.00,WeatherCatV1.15B25,2013-04-21 15:47:00,
2013-04-21 11:52:00,47.2,21.6,30.47,WSW,258,0.0,3.0,36,0.00,,,0.00,WeatherCatV1.15B25,2013-04-21 15:52:00,
2013-04-21 11:57:00,47.5,23.2,30.47,NNW,342,0.0,6.0,38,0.00,,,0.00,WeatherCatV1.15B25,2013-04-21 15:57:00,
2013-04-21 12:02:00,47.8,22.2,30.47,ENE,67,1.0,6.0,36,0.00,,,0.00,WeatherCatV1.15B25,2013-04-21 16:02:00,
2013-04-21 12:07:00,48.0,22.3,30.47,North,7,1.0,11.0,36,0.00,,,0.00,WeatherCatV1.15B25,2013-04-21 16:07:00,
2013-04-21 12:12:00,48.5,23.4,30.48,WNW,293,1.0,4.0,37,0.00,,,0.00,WeatherCatV1.15B25,2013-04-21 16:12:00,
2013-04-21 12:17:00,48.5,23.4,30.48,NNW,333,2.0,5.0,37,0.00,,,0.00,WeatherCatV1.15B25,2013-04-21 16:17:00,
2013-04-21 12:22:00,48.9,23.1,30.48,NW,304,0.0,2.0,36,0.00,,,0.00,WeatherCatV1.15B25,2013-04-21 16:22:00,
2013-04-21 12:27:00,49.2,22.7,30.48,South,186,1.0,6.0,35,0.00,,,0.00,WeatherCatV1.15B25,2013-04-21 16:27:00,
2013-04-21 12:32:00,48.9,21.8,30.48,SSW,202,7.0,8.0,34,0.00,,,0.00,WeatherCatV1.15B25,2013-04-21 16:32:00,
2013-04-21 12:37:00,48.7,21.6,30.48,West,274,1.0,2.0,34,0.00,,,0.00,WeatherCatV1.15B25,2013-04-21 16:37:00,
2013-04-21 12:42:00,49.0,21.9,30.48,North,352,0.0,2.0,34,0.00,,,0.00,WeatherCatV1.15B25,2013-04-21 16:42:00,
2013-04-21 12:47:00,49.0,21.2,30.48,ENE,67,9.0,9.0,33,0.00,,,0.00,WeatherCatV1.15B25,2013-04-21 16:47:00,
2013-04-21 12:52:00,49.1,22.0,30.48,NE,39,0.0,4.0,34,0.00,,,0.00,WeatherCatV1.15B25,2013-04-21 16:52:00,
2013-04-21 12:57:00,48.9,23.1,30.48,West,275,0.0,1.0,36,0.00,,,0.00,WeatherCatV1.15B25,2013-04-21 16:57:00,
2013-04-21 13:02:00,49.6,25.0,30.48,NNW,336,1.0,6.0,38,0.00,,,0.00,WeatherCatV1.15B25,2013-04-21 17:02:00,
2013-04-21 13:07:00,49.7,22.5,30.48,SSE,163,0.0,6.0,34,0.00,,,0.00,WeatherCatV1.15B25,2013-04-21 17:07:00,
2013-04-21 13:12:00,49.3,23.5,30.47,SW,227,1.0,2.0,36,0.00,,,0.00,WeatherCatV1.15B25,2013-04-21 17:12:00,
2013-04-21 13:17:00,49.8,23.9,30.47,WNW,294,1.0,4.0,36,0.00,,,0.00,WeatherCatV1.15B25,2013-04-21 17:17:00,
2013-04-21 13:22:00,49.8,22.6,30.47,West,266,3.0,6.0,34,0.00,,,0.00,WeatherCatV1.15B25,2013-04-21 17:22:00,
2013-04-21 13:27:00,49.2,22.7,30.47,SSW,202,5.0,7.0,35,0.00,,,0.00,WeatherCatV1.15B25,2013-04-21 17:27:00,
2013-04-21 13:32:00,49.4,22.9,30.47,South,175,2.0,3.0,35,0.00,,,0.00,WeatherCatV1.15B25,2013-04-21 17:32:00,
2013-04-21 13:37:00,50.5,22.5,30.47,WNW,298,0.0,8.0,33,0.00,,,0.00,WeatherCatV1.15B25,2013-04-21 17:37:00,
2013-04-21 13:42:00,50.8,22.7,30.47,WNW,298,3.0,4.0,33,0.00,,,0.00,WeatherCatV1.15B25,2013-04-21 17:42:00,
2013-04-21 13:47:00,50.1,22.1,30.47,WNW,302,2.0,2.0,33,0.00,,,0.00,WeatherCatV1.15B25,2013-04-21 17:47:00,
2013-04-21 13:52:00,50.4,20.1,30.47,NW,309,1.0,3.0,30,0.00,,,0.00,WeatherCatV1.15B25,2013-04-21 17:52:00,
2013-04-21 13:57:00,51.1,22.3,30.47,North,350,0.0,4.0,32,0.00,,,0.00,WeatherCatV1.15B25,2013-04-21 17:57:00,
2013-04-21 14:02:00,50.3,19.3,30.47,West,275,2.0,11.0,29,0.00,,,0.00,WeatherCatV1.15B25,2013-04-21 18:02:00,
2013-04-21 14:07:00,50.6,21.1,30.47,South,173,0.0,5.0,31,0.00,,,0.00,WeatherCatV1.15B25,2013-04-21 18:07:00,
2013-04-21 14:12:00,50.9,20.6,30.47,NW,316,0.0,3.0,30,0.00,,,0.00,WeatherCatV1.15B25,2013-04-21 18:12:00,
2013-04-21 14:17:00,50.6,19.5,30.47,NE,35,0.0,3.0,29,0.00,,,0.00,WeatherCatV1.15B25,2013-04-21 18:17:00,
2013-04-21 14:22:00,51.2,23.1,30.47,WNW,288,4.0,4.0,33,0.00,,,0.00,WeatherCatV1.15B25,2013-04-21 18:22:00,
2013-04-21 14:27:00,52.0,19.9,30.47,NE,53,6.0,7.0,28,0.00,,,0.00,WeatherCatV1.15B25,2013-04-21 18:27:00,
2013-04-21 14:32:00,51.9,20.7,30.47,South,182,3.0,5.0,29,0.00,,,0.00,WeatherCatV1.15B25,2013-04-21 18:32:00,
2013-04-21 14:37:00,51.3,20.1,30.47,NNW,347,1.0,5.0,29,0.00,,,0.00,WeatherCatV1.15B25,2013-04-21 18:37:00,
2013-04-21 14:42:00,51.0,19.9,30.47,SW,220,2.0,5.0,29,0.00,,,0.00,WeatherCatV1.15B25,2013-04-21 18:42:00,
2013-04-21 14:47:00,51.5,20.3,30.47,WNW,300,0.0,5.0,29,0.00,,,0.00,WeatherCatV1.15B25,2013-04-21 18:47:00,
2013-04-21 14:52:00,52.2,20.1,30.47,SW,234,2.0,7.0,28,0.00,,,0.00,WeatherCatV1.15B25,2013-04-21 18:52:00,
2013-04-21 14:57:00,52.4,20.3,30.47,West,271,0.0,5.0,28,0.00,,,0.00,WeatherCatV1.15B25,2013-04-21 18:57:00,
2013-04-21 15:02:00,52.7,19.7,30.47,West,263,0.0,4.0,27,0.00,,,0.00,WeatherCatV1.15B25,2013-04-21 19:02:00,
2013-04-21 15:07:00,52.7,22.1,30.47,WNW,301,3.0,4.0,30,0.00,,,0.00,WeatherCatV1.15B25,2013-04-21 19:07:00,
2013-04-21 15:12:00,52.9,23.9,30.47,NNE,17,3.0,8.0,32,0.00,,,0.00,WeatherCatV1.15B25,2013-04-21 19:12:00,
2013-04-21 15:17:00,52.8,19.8,30.47,West,272,0.0,5.0,27,0.00,,,0.00,WeatherCatV1.15B25,2013-04-21 19:17:00,
2013-04-21 15:22:00,51.9,20.7,30.47,NNE,17,2.0,4.0,29,0.00,,,0.00,WeatherCatV1.15B25,2013-04-21 19:22:00,
2013-04-21 15:27:00,52.6,22.8,30.47,NNE,19,2.0,3.0,31,0.00,,,0.00,WeatherCatV1.15B25,2013-04-21 19:27:00,
2013-04-21 15:32:00,53.2,24.9,30.47,NNE,32,3.0,4.0,33,0.00,,,0.00,WeatherCatV1.15B25,2013-04-21 19:32:00,
2013-04-21 15:37:00,53.4,24.3,30.47,ENE,78,0.0,2.0,32,0.00,,,0.00,WeatherCatV1.15B25,2013-04-21 19:37:00,
2013-04-21 15:42:00,53.3,25.7,30.47,NNE,30,0.0,5.0,34,0.00,,,0.00,WeatherCatV1.15B25,2013-04-21 19:42:00,
2013-04-21 15:47:00,53.2,24.9,30.47,NNW,346,2.0,3.0,33,0.00,,,0.00,WeatherCatV1.15B25,2013-04-21 19:47:00,
2013-04-21 15:52:00,53.4,23.5,30.47,NNE,17,3.0,4.0,31,0.00,,,0.00,WeatherCatV1.15B25,2013-04-21 19:52:00,
2013-04-21 15:57:00,53.2,24.1,30.47,NNE,26,5.0,7.0,32,0.00,,,0.00,WeatherCatV1.15B25,2013-04-21 19:57:00,
2013-04-21 16:02:00,53.0,23.2,30.47,NNE,21,5.0,7.0,31,0.00,,,0.00,WeatherCatV1.15B25,2013-04-21 20:02:00,
2013-04-21 16:07:00,53.0,25.4,30.47,ENE,77,2.0,5.0,34,0.00,,,0.00,WeatherCatV1.15B25,2013-04-21 20:07:00,
2013-04-21 16:12:00,52.8,24.5,30.48,East,88,0.0,2.0,33,0.00,,,0.00,WeatherCatV1.15B25,2013-04-21 20:12:00,
2013-04-21 16:17:00,52.4,26.2,30.48,ENE,58,2.0,4.0,36,0.00,,,0.00,WeatherCatV1.15B25,2013-04-21 20:17:00,
2013-04-21 16:22:00,52.2,28.0,30.48,East,93,3.0,7.0,39,0.00,,,0.00,WeatherCatV1.15B25,2013-04-21 20:22:00,
2013-04-21 16:27:00,52.1,29.1,30.48,NE,53,0.0,2.0,41,0.00,,,0.00,WeatherCatV1.15B25,2013-04-21 20:27:00,
2013-04-21 16:32:00,51.7,27.6,30.48,North,353,0.0,8.0,39,0.00,,,0.00,WeatherCatV1.15B25,2013-04-21 20:32:00,
2013-04-21 16:37:00,51.6,28.1,30.48,ESE,104,1.0,5.0,40,0.00,,,0.00,WeatherCatV1.15B25,2013-04-21 20:37:00,
2013-04-21 16:42:00,51.7,26.9,30.48,NNE,30,3.0,7.0,38,0.00,,,0.00,WeatherCatV1.15B25,2013-04-21 20:42:00,
2013-04-21 16:47:00,51.2,27.7,30.48,NNE,17,4.0,6.0,40,0.00,,,0.00,WeatherCatV1.15B25,2013-04-21 20:47:00,
2013-04-21 16:52:00,51.0,27.5,30.48,NNE,28,2.0,6.0,40,0.00,,,0.00,WeatherCatV1.15B25,2013-04-21 20:52:00,
2013-04-21 16:57:00,50.8,27.4,30.49,NNE,29,1.0,7.0,40,0.00,,,0.00,WeatherCatV1.15B25,2013-04-21 20:57:00,
2013-04-21 17:02:00,50.8,27.4,30.49,NE,48,4.0,6.0,40,0.00,,,0.00,WeatherCatV1.15B25,2013-04-21 21:02:00,
2013-04-21 17:07:00,50.8,27.4,30.49,NE,53,0.0,2.0,40,0.00,,,0.00,WeatherCatV1.15B25,2013-04-21 21:07:00,
2013-04-21 17:12:00,50.8,28.5,30.49,East,90,5.0,5.0,42,0.00,,,0.00,WeatherCatV1.15B25,2013-04-21 21:12:00,
2013-04-21 17:17:00,50.9,27.4,30.49,NNE,23,3.0,6.0,40,0.00,,,0.00,WeatherCatV1.15B25,2013-04-21 21:17:00,
2013-04-21 17:22:00,50.8,27.4,30.49,ENE,76,0.0,1.0,40,0.00,,,0.00,WeatherCatV1.15B25,2013-04-21 21:22:00,
2013-04-21 17:27:00,51.0,25.7,30.49,NNE,24,2.0,7.0,37,0.00,,,0.00,WeatherCatV1.15B25,2013-04-21 21:27:00,
2013-04-21 17:32:00,50.9,25.6,30.49,NNE,24,2.0,5.0,37,0.00,,,0.00,WeatherCatV1.15B25,2013-04-21 21:32:00,
2013-04-21 17:37:00,50.7,26.0,30.49,East,82,2.0,7.0,38,0.00,,,0.00,WeatherCatV1.15B25,2013-04-21 21:37:00,
2013-04-21 17:42:00,50.1,26.7,30.50,NNE,30,2.0,5.0,40,0.00,,,0.00,WeatherCatV1.15B25,2013-04-21 21:42:00,
2013-04-21 17:47:00,50.0,27.8,30.50,NNE,27,4.0,4.0,42,0.00,,,0.00,WeatherCatV1.15B25,2013-04-21 21:47:00,
2013-04-21 17:52:00,49.8,27.6,30.50,NE,36,3.0,6.0,42,0.00,,,0.00,WeatherCatV1.15B25,2013-04-21 21:52:00,
2013-04-21 17:57:00,49.2,28.2,30.50,NE,34,2.0,6.0,44,0.00,,,0.00,WeatherCatV1.15B25,2013-04-21 21:57:00,
2013-04-21 18:02:00,48.7,28.3,30.50,NNE,19,0.0,6.0,45,0.00,,,0.00,WeatherCatV1.15B25,2013-04-21 22:02:00,
2013-04-21 18:07:00,48.4,28.0,30.51,NNE,18,4.0,8.0,45,0.00,,,0.00,WeatherCatV1.15B25,2013-04-21 22:07:00,
2013-04-21 18:12:00,48.2,28.4,30.51,North,2,4.0,4.0,46,0.00,,,0.00,WeatherCatV1.15B25,2013-04-21 22:12:00,
2013-04-21 18:17:00,48.0,28.2,30.51,NE,36,2.0,6.0,46,0.00,,,0.00,WeatherCatV1.15B25,2013-04-21 22:17:00,
2013-04-21 18:22:00,47.7,27.9,30.51,ENE,71,2.0,5.0,46,0.00,,,0.00,WeatherCatV1.15B25,2013-04-21 22:22:00,
2013-04-21 18:27:00,47.3,27.0,30.51,NNE,26,1.0,7.0,45,0.00,,,0.00,WeatherCatV1.15B25,2013-04-21 22:27:00,
2013-04-21 18:32:00,47.0,27.3,30.51,NNE,20,3.0,5.0,46,0.00,,,0.00,WeatherCatV1.15B25,2013-04-21 22:32:00,
2013-04-21 18:37:00,46.8,26.0,30.51,NNE,23,0.0,9.0,44,0.00,,,0.00,WeatherCatV1.15B25,2013-04-21 22:37:00,
2013-04-21 18:42:00,46.4,26.2,30.51,NE,37,1.0,5.0,45,0.00,,,0.00,WeatherCatV1.15B25,2013-04-21 22:42:00,
2013-04-21 18:47:00,46.1,26.0,30.52,NNE,14,0.0,3.0,45,0.00,,,0.00,WeatherCatV1.15B25,2013-04-21 22:47:00,
2013-04-21 18:52:00,45.9,25.2,30.52,NNE,30,3.0,7.0,44,0.00,,,0.00,WeatherCatV1.15B25,2013-04-21 22:52:00,
2013-04-21 18:57:00,45.8,25.1,30.52,NNE,16,0.0,3.0,44,0.00,,,0.00,WeatherCatV1.15B25,2013-04-21 22:57:00,
2013-04-21 19:02:00,45.6,25.0,30.53,NNE,16,0.0,1.0,44,0.00,,,0.00,WeatherCatV1.15B25,2013-04-21 23:02:00,
2013-04-21 19:07:00,45.4,24.8,30.53,NNE,28,0.0,1.0,44,0.00,,,0.00,WeatherCatV1.15B25,2013-04-21 23:07:00,
2013-04-21 19:12:00,45.2,25.1,30.53,ENE,59,0.0,2.0,45,0.00,,,0.00,WeatherCatV1.15B25,2013-04-21 23:12:00,
2013-04-21 19:17:00,45.0,24.4,30.53,NE,41,0.0,2.0,44,0.00,,,0.00,WeatherCatV1.15B25,2013-04-21 23:17:00,
2013-04-21 19:22:00,44.9,24.3,30.54,NNE,18,0.0,1.0,44,0.00,,,0.00,WeatherCatV1.15B25,2013-04-21 23:22:00,
2013-04-21 19:27:00,44.7,24.7,30.54,North,2,0.0,1.0,45,0.00,,,0.00,WeatherCatV1.15B25,2013-04-21 23:27:00,
2013-04-21 19:32:00,44.6,24.6,30.54,NNE,26,1.0,1.0,45,0.00,,,0.00,WeatherCatV1.15B25,2013-04-21 23:32:00,
2013-04-21 19:38:00,44.5,25.0,30.55,NNE,26,0.0,0.0,46,0.00,,,0.00,WeatherCatV1.15B25,2013-04-21 23:38:00,
2013-04-21 19:43:00,44.3,24.3,30.55,NNE,26,0.0,0.0,45,0.00,,,0.00,WeatherCatV1.15B25,2013-04-21 23:43:00,
2013-04-21 19:48:00,44.1,24.1,30.55,NNE,26,0.0,0.0,45,0.00,,,0.00,WeatherCatV1.15B25,2013-04-21 23:48:00,
2013-04-21 19:53:00,43.9,25.0,30.55,NNE,26,0.0,1.0,47,0.00,,,0.00,WeatherCatV1.15B25,2013-04-21 23:53:00,
2013-04-21 19:58:00,43.8,24.9,30.55,NNE,26,0.0,0.0,47,0.00,,,0.00,WeatherCatV1.15B25,2013-04-21 23:58:00,
2013-04-21 20:03:00,43.6,24.7,30.56,NNE,26,0.0,0.0,47,0.00,,,0.00,WeatherCatV1.15B25,2013-04-22 00:03:00,
2013-04-21 20:08:00,43.4,26.0,30.56,NNE,26,0.0,0.0,50,0.00,,,0.00,WeatherCatV1.15B25,2013-04-22 00:08:00,
2013-04-21 20:13:00,43.2,25.8,30.56,NNE,26,0.0,0.0,50,0.00,,,0.00,WeatherCatV1.15B25,2013-04-22 00:13:00,
2013-04-21 20:18:00,42.8,25.9,30.56,NNE,26,0.0,0.0,51,0.00,,,0.00,WeatherCatV1.15B25,2013-04-22 00:18:00,
2013-04-21 20:23:00,42.4,24.6,30.56,NNE,26,0.0,0.0,49,0.00,,,0.00,WeatherCatV1.15B25,2013-04-22 00:23:00,
2013-04-21 20:28:00,42.1,24.8,30.57,NNE,26,0.0,0.0,50,0.00,,,0.00,WeatherCatV1.15B25,2013-04-22 00:28:00,
2013-04-21 20:33:00,41.9,25.1,30.57,NNE,26,0.0,0.0,51,0.00,,,0.00,WeatherCatV1.15B25,2013-04-22 00:33:00,
2013-04-21 20:38:00,41.7,26.3,30.57,NNE,26,0.0,0.0,54,0.00,,,0.00,WeatherCatV1.15B25,2013-04-22 00:38:00,
2013-04-21 20:43:00,41.5,25.7,30.58,NNE,26,0.0,0.0,53,0.00,,,0.00,WeatherCatV1.15B25,2013-04-22 00:43:00,
2013-04-21 20:48:00,41.3,25.9,30.58,NNE,26,0.0,0.0,54,0.00,,,0.00,WeatherCatV1.15B25,2013-04-22 00:48:00,
2013-04-21 20:53:00,41.2,26.3,30.58,SE,135,0.0,2.0,55,0.00,,,0.00,WeatherCatV1.15B25,2013-04-22 00:53:00,
2013-04-21 20:58:00,41.2,26.7,30.59,SE,138,0.0,0.0,56,0.00,,,0.00,WeatherCatV1.15B25,2013-04-22 00:58:00,
2013-04-21 21:03:00,41.3,26.8,30.59,SE,138,0.0,0.0,56,0.00,,,0.00,WeatherCatV1.15B25,2013-04-22 01:03:00,
2013-04-21 21:08:00,41.2,27.6,30.59,SE,138,0.0,0.0,58,0.00,,,0.00,WeatherCatV1.15B25,2013-04-22 01:08:00,
2013-04-21 21:13:00,41.1,27.5,30.60,SE,138,0.0,0.0,58,0.00,,,0.00,WeatherCatV1.15B25,2013-04-22 01:13:00,
2013-04-21 21:18:00,40.9,27.7,30.59,SE,138,0.0,0.0,59,0.00,,,0.00,WeatherCatV1.15B25,2013-04-22 01:18:00,
2013-04-21 21:23:00,40.7,27.5,30.60,SE,138,0.0,0.0,59,0.00,,,0.00,WeatherCatV1.15B25,2013-04-22 01:23:00,
2013-04-21 21:28:00,40.6,27.4,30.60,SE,138,0.0,0.0,59,0.00,,,0.00,WeatherCatV1.15B25,2013-04-22 01:28:00,
2013-04-21 21:33:00,40.5,27.7,30.60,SE,138,0.0,0.0,60,0.00,,,0.00,WeatherCatV1.15B25,2013-04-22 01:33:00,
2013-04-21 21:38:00,40.5,28.1,30.60,SE,138,0.0,2.0,61,0.00,,,0.00,WeatherCatV1.15B25,2013-04-22 01:38:00,
2013-04-21 21:43:00,40.4,28.4,30.60,SE,138,0.0,0.0,62,0.00,,,0.00,WeatherCatV1.15B25,2013-04-22 01:43:00,
2013-04-21 21:48:00,40.3,28.7,30.60,SE,138,0.0,0.0,63,0.00,,,0.00,WeatherCatV1.15B25,2013-04-22 01:48:00,
2013-04-21 21:53:00,40.1,28.9,30.61,SE,138,0.0,0.0,64,0.00,,,0.00,WeatherCatV1.15B25,2013-04-22 01:53:00,
2013-04-21 21:58:00,39.9,28.7,30.61,SE,138,0.0,0.0,64,0.00,,,0.00,WeatherCatV1.15B25,2013-04-22 01:58:00,
2013-04-21 22:03:00,39.8,28.6,30.61,SE,138,0.0,0.0,64,0.00,,,0.00,WeatherCatV1.15B25,2013-04-22 02:03:00,
2013-04-21 22:08:00,39.7,28.5,30.61,SE,138,0.0,0.0,64,0.00,,,0.00,WeatherCatV1.15B25,2013-04-22 02:08:00,
2013-04-21 22:13:00,39.6,29.2,30.61,SE,138,0.0,0.0,66,0.00,,,0.00,WeatherCatV1.15B25,2013-04-22 02:13:00,
2013-04-21 22:18:00,39.3,29.3,30.61,SE,138,0.0,0.0,67,0.00,,,0.00,WeatherCatV1.15B25,2013-04-22 02:18:00,
2013-04-21 22:23:00,39.0,29.3,30.61,SE,138,0.0,0.0,68,0.00,,,0.00,WeatherCatV1.15B25,2013-04-22 02:23:00,
2013-04-21 22:28:00,38.8,29.2,30.61,SE,138,0.0,0.0,68,0.00,,,0.00,WeatherCatV1.15B25,2013-04-22 02:28:00,
2013-04-21 22:33:00,38.6,29.3,30.61,SE,138,0.0,0.0,69,0.00,,,0.00,WeatherCatV1.15B25,2013-04-22 02:33:00,
2013-04-21 22:38:00,38.4,29.1,30.61,SE,138,0.0,0.0,69,0.00,,,0.00,WeatherCatV1.15B25,2013-04-22 02:38:00,
2013-04-21 22:43:00,38.2,28.9,30.61,SE,138,0.0,0.0,69,0.00,,,0.00,WeatherCatV1.15B25,2013-04-22 02:43:00,
2013-04-21 22:48:00,38.0,29.1,30.61,SE,138,0.0,0.0,70,0.00,,,0.00,WeatherCatV1.15B25,2013-04-22 02:48:00,
2013-04-21 22:53:00,37.9,29.4,30.61,SE,138,0.0,0.0,71,0.00,,,0.00,WeatherCatV1.15B25,2013-04-22 02:53:00,
2013-04-21 22:58:00,37.7,29.2,30.61,SE,138,0.0,0.0,71,0.00,,,0.00,WeatherCatV1.15B25,2013-04-22 02:58:00,
2013-04-21 23:03:00,37.4,28.9,30.61,SE,138,0.0,0.0,71,0.00,,,0.00,WeatherCatV1.15B25,2013-04-22 03:03:00,
2013-04-21 23:08:00,37.4,29.2,30.61,SE,138,0.0,0.0,72,0.00,,,0.00,WeatherCatV1.15B25,2013-04-22 03:08:00,
2013-04-21 23:13:00,37.3,29.5,30.61,SE,138,0.0,0.0,73,0.00,,,0.00,WeatherCatV1.15B25,2013-04-22 03:13:00,
2013-04-21 23:18:00,37.0,29.2,30.61,South,178,0.0,1.0,73,0.00,,,0.00,WeatherCatV1.15B25,2013-04-22 03:18:00,
2013-04-21 23:23:00,37.0,29.5,30.61,South,178,0.0,0.0,74,0.00,,,0.00,WeatherCatV1.15B25,2013-04-22 03:23:00,
2013-04-21 23:28:00,37.0,29.5,30.61,South,178,0.0,0.0,74,0.00,,,0.00,WeatherCatV1.15B25,2013-04-22 03:28:00,
2013-04-21 23:33:00,36.8,29.3,30.61,South,178,0.0,0.0,74,0.00,,,0.00,WeatherCatV1.15B25,2013-04-22 03:33:00,
2013-04-21 23:38:00,36.7,29.2,30.62,South,178,0.0,0.0,74,0.00,,,0.00,WeatherCatV1.15B25,2013-04-22 03:38:00,
2013-04-21 23:43:00,36.5,29.3,30.62,South,178,0.0,0.0,75,0.00,,,0.00,WeatherCatV1.15B25,2013-04-22 03:43:00,
2013-04-21 23:48:00,36.4,29.2,30.62,South,178,0.0,0.0,75,0.00,,,0.00,WeatherCatV1.15B25,2013-04-22 03:48:00,
2013-04-21 23:53:00,36.3,29.1,30.62,South,178,0.0,0.0,75,0.00,,,0.00,WeatherCatV1.15B25,2013-04-22 03:53:00,
2013-04-21 23:58:00,36.2,29.4,30.62,South,178,0.0,0.0,76,0.00,,,0.00,WeatherCatV1.15B25,2013-04-22 03:58:00,